CAPE
3007 2862 2326 2510 2385 1863 1238 704 320 33 0 0 0 0 0 0 0 0 0 0 0 0 0 0 0 0 0 0 0 0 0 0 0 0 0 1 19 39 19 19 5 25 5
2457 2661 2833 2166 1702 877 698 222 10 0 0 0 0 0 0 0 0 0 0 0 0 0 0 0 0 0 0 0 0 2 0 10 0 20 11 0 6 51 64 80 7 0 8
1882 1780 1402 793 735 608 420 91 0 0 0 0 0 0 0 0 0 0 0 0 0 0 0 0 0 0 0 0 0 0 0 0 5 0 1 7 19 43 16 37 23 13 28
1471 927 803 568 319 466 114 4 1 0 0 0 0 0 0 0 0 0 0 0 0 0 0 0 0 0 0 1 0 0 0 0 4 0 0 0 4 73 5 13 5 7 22
639 512 349 296 340 77 7 1 0 1 0 0 0 0 0 0 0 0 0 0 0 0 0 0 0 0 0 0 0 0 0 0 0 0 1 0 9 1 4 3 4 0 11
608 480 428 380 89 15 8 3 2 0 2 1 1 1 0 0 0 0 0 0 0 0 0 0 1 0 0 0 0 0 0 1 5 3 2 2 14 14 19 17 8 5 1
413 432 311 122 22 16 8 7 13 30 30 6 2 4 10 0 0 0 0 0 0 0 0 2 1 0 1 10 11 1 2 5 2 16 21 26 26 24 2 17 16 16 6
302 107 77 43 22 21 12 20 30 26 16 0 0 0 0 0 0 0 0 0 0 0 1 3 8 9 4 4 6 5 8 20 48 13 25 22 10 1 13 21 23 29 8
0 0 1 3 1 0 0 0 0 0 0 0 1 1 0 0 0 0 0 0 0 1 1 0 8 10 0 0 6 12 13 11 12 0 0 0 0 0 0 5 6 9 1
4 6 4 6 3 3 3 2 7 9 5 6 3 0 0 0 0 0 0 0 0 0 0 7 0 0 0 0 0 5 10 10 21 21 21 17 10 16 1 1 1 23 17
15 14 17 5 2 1 1 2 1 3 3 2 1 2 0 0 0 0 0 0 1 0 1 0 2 0 0 0 0 1 7 0 11 30 18 13 17 14 15 46 41 37 37
5 6 6 5 8 9 2 4 3 4 3 2 2 1 1 0 0 0 0 0 0 3 4 2 8 0 0 0 0 0 0 0 11 28 19 12 11 7 6 19 32 20 27
14 12 13 2 2 10 4 10 9 9 20 4 5 1 5 4 5 0 0 0 0 0 4 0 0 0 0 0 0 0 0 7 12 30 26 18 15 15 17 22 24 44 39
15 28 17 25 9 12 4 15 8 4 0 2 4 5 5 6 6 0 2 6 4 4 2 1 0 0 0 0 0 0 1 15 17 14 32 22 30 12 10 7 8 12 25
15 20 43 31 5 2 0 1 3 0 0 0 1 1 3 3 0 0 0 3 4 2 4 3 2 6 7 7 8 3 3 6 5 13 20 27 22 11 7 11 7 16 13
1 0 0 0 3 9 5 0 0 0 0 0 0 0 1 0 0 0 0 0 0 0 1 2 3 4 4 4 7 6 4 4 10 19 20 9 17 19 16 12 7 13 17
0 1 0 0 0 0 1 2 6 0 0 0 0 0 0 0 0 0 0 0 0 0 2 1 5 6 2 1 6 4 5 1 16 17 28 15 17 21 30 23 15 13 9
6 0 0 0 0 0 0 0 0 0 5 8 0 0 0 0 0 0 0 0 5 1 0 5 4 2 1 2 2 7 1 1 4 9 20 23 21 23 22 12 8 9 10
2 0 0 0 0 0 0 0 0 0 3 8 12 1 0 0 0 0 0 2 5 2 9 7 8 5 1 3 10 6 1 2 5 12 16 9 9 17 20 15 7 0 0
9 0 0 0 0 0 0 0 1 0 2 3 9 8 5 3 6 9 10 9 1 2 11 10 8 8 3 5 9 3 0 1 8 15 5 30 12 32 15 15 17 16 24
13 15 1 7 3 0 0 0 0 2 1 2 4 0 0 0 9 8 7 8 9 13 1 8 9 6 7 5 3 5 3 1 5 12 14 20 13 26 22 31 19 7 26
9 8 5 10 5 1 2 3 5 3 5 6 6 7 0 16 11 9 13 8 6 12 12 11 11 11 2 11 11 11 1 13 11 11 9 28 10 17 19 22 23 23 35
4 3 3 3 3 0 3 3 7 8 7 9 12 8 6 11 5 5 15 14 9 12 11 12 15 12 14 17 15 11 11 9 10 11 16 23 6 22 22 25 17 25 35
6 2 0 1 1 4 5 10 11 1 7 13 15 11 10 25 26 22 20 15 13 12 13 14 18 19 19 15 16 17 17 7 14 19 18 17 14 11 16 19 17 14 27
18 8 4 6 9 15 14 18 18 16 15 16 21 17 23 27 25 28 28 23 22 19 14 21 22 14 15 14 14 10 4 0 6 1 22 17 12 7 16 15 23 17 20
30 23 16 14 17 21 28 36 34 30 31 27 46 45 39 28 34 36 35 32 30 25 21 25 23 18 19 16 14 4 0 0 0 0 15 20 19 14 14 26 4 19 8
CIN
-3 -7 -56 -34 -31 -70 -127 -147 -262 -447 -0 -0 -0 -0 -0 -0 -0 -0 -0 -0 -0 -0 -0 -0 -0 -0 -0 -0 -0 -0 -0 -0 -0 -0 -0 -0 -0 -0 -0 -0 -0 -0 -0
-1 -0 -0 -11 -44 -175 -166 -305 -385 -0 -0 -0 -0 -0 -0 -0 -0 -0 -0 -0 -0 -0 -0 -0 -0 -0 -0 -0 -0 -0 -0 -0 -0 -0 -0 -0 -1 -0 -0 -0 -0 -0 -0
-19 -5 -38 -131 -120 -156 -190 -333 -0 -0 -0 -0 -0 -0 -0 -0 -0 -0 -0 -0 -0 -0 -0 -0 -0 -0 -0 -0 -0 -0 -0 -0 -0 -0 -0 -0 -0 -6 -3 -0 -0 -2 -0
-10 -73 -133 -150 -222 -137 -271 -232 -0 -0 -0 -0 -0 -0 -0 -0 -0 -0 -0 -0 -0 -0 -0 -0 -0 -0 -0 -0 -0 -0 -0 -0 -0 -0 -0 -0 -0 -2 -7 -0 -0 -0 -0
-89 -111 -198 -174 -114 -236 -0 -1 -0 -0 -0 -0 -0 -0 -0 -0 -0 -0 -0 -0 -0 -0 -0 -0 -0 -0 -0 -0 -0 -0 -0 -0 -0 -0 -0 -0 -0 -3 -0 -0 -0 -0 -0
-17 -52 -67 -54 -174 -165 -0 -0 -0 -0 -0 -0 -0 -0 -0 -0 -0 -0 -0 -0 -0 -0 -0 -0 -0 -0 -0 -0 -0 -0 -0 -0 -0 -0 -0 -0 -0 -0 -0 -0 -0 -0 -0
-30 -22 -53 -111 -103 -0 -0 -0 -0 -0 -0 -0 -0 -0 -0 -0 -0 -0 -0 -0 -0 -0 -0 -0 -0 -0 -0 -0 -13 -46 -5 -53 -50 -3 -0 -0 -0 -0 -1 -0 -0 -0 -0
-34 -63 -117 -117 -0 -0 -0 -2 -2 -0 -1 -0 -0 -0 -0 -0 -0 -0 -0 -0 -0 -0 -0 -0 -0 -0 -0 -0 -0 -0 -0 -0 -1 -10 -0 -0 -0 -2 -0 -0 -0 -0 -0
-0 -0 -0 -1 -1 -0 -0 -0 -0 -0 -0 -0 -0 -0 -0 -0 -0 -0 -0 -0 -0 -0 -0 -0 -0 -0 -6 -0 -0 -0 -0 -0 -0 -0 -0 -0 -0 -0 -0 -4 -0 -0 -0
-0 -0 -0 -0 -0 -0 -0 -0 -0 -0 -0 -0 -0 -0 -0 -0 -0 -0 -0 -0 -0 -0 -0 -0 -0 -0 -0 -0 -0 -0 -0 -0 -0 -0 -0 -2 -19 -1 -34 -6 -0 -0 -0
-0 -0 -0 -0 -0 -0 -0 -0 -0 -0 -0 -0 -0 -0 -0 -0 -1 -0 -0 -0 -0 -0 -0 -0 -0 -0 -0 -0 -0 -0 -0 -0 -1 -0 -0 -0 -0 -0 -0 -0 -3 -0 -0
-0 -0 -0 -0 -0 -0 -0 -0 -0 -0 -0 -0 -0 -0 -0 -0 -0 -0 -0 -0 -0 -0 -0 -0 -0 -0 -0 -0 -0 -0 -0 -0 -0 -0 -0 -0 -0 -0 -0 -0 -0 -0 -0
-0 -0 -0 -0 -0 -0 -0 -0 -0 -0 -0 -2 -1 -0 -0 -0 -3 -0 -0 -0 -0 -0 -0 -2 -0 -0 -0 -0 -0 -0 -0 -0 -0 -0 -0 -0 -0 -2 -1 -0 -0 -0 -0
-0 -0 -0 -0 -2 -0 -0 -0 -0 -0 -1 -0 -0 -0 -0 -0 -0 -0 -0 -0 -0 -1 -1 -0 -0 -0 -0 -0 -0 -0 -0 -0 -0 -0 -0 -0 -0 -1 -2 -0 -0 -0 -0
-0 -0 -0 -0 -4 -1 -0 -0 -0 -0 -0 -0 -0 -0 -0 -0 -0 -0 -0 -0 -0 -0 -0 -0 -0 -0 -0 -0 -0 -0 -0 -0 -0 -0 -0 -0 -0 -0 -0 -0 -0 -0 -0
-0 -0 -0 -0 -0 -0 -0 -0 -0 -0 -0 -0 -0 -0 -0 -0 -0 -0 -0 -0 -0 -0 -0 -0 -0 -0 -0 -0 -0 -0 -0 -0 -0 -0 -0 -0 -0 -0 -0 -0 -0 -0 -0
-0 -0 -0 -0 -0 -0 -0 -0 -0 -0 -0 -0 -0 -0 -0 -0 -0 -0 -0 -0 -0 -0 -0 -0 -0 -0 -1 -0 -0 -0 -0 -0 -0 -0 -0 -0 -0 -0 -0 -0 -0 -0 -0
-0 -0 -0 -0 -0 -0 -0 -0 -0 -0 -0 -0 -0 -0 -0 -0 -0 -0 -0 -0 -0 -0 -0 -0 -0 -0 -0 -0 -0 -0 -0 -0 -0 -0 -0 -0 -0 -0 -0 -0 -0 -0 -0
-0 -0 -0 -0 -0 -0 -0 -0 -0 -0 -0 -0 -0 -0 -1 -0 -0 -0 -0 -0 -0 -0 -0 -0 -0 -0 -0 -0 -0 -0 -0 -0 -0 -0 -0 -0 -1 -0 -0 -0 -0 -1 -0
-0 -0 -0 -0 -0 -0 -0 -0 -0 -0 -0 -0 -0 -0 -0 -0 -0 -0 -0 -0 -0 -0 -0 -0 -0 -0 -0 -0 -0 -0 -0 -0 -0 -0 -0 -0 -0 -0 -0 -0 -0 -0 -0
-0 -0 -4 -0 -0 -0 -0 -0 -0 -0 -0 -0 -0 -0 -0 -0 -0 -0 -0 -0 -0 -0 -0 -0 -0 -0 -0 -0 -0 -0 -0 -0 -0 -0 -0 -0 -0 -0 -0 -0 -0 -0 -2
-0 -0 -0 -0 -0 -0 -0 -0 -0 -0 -0 -0 -0 -0 -0 -0 -0 -0 -0 -0 -0 -0 -0 -0 -0 -0 -0 -0 -0 -0 -0 -0 -0 -0 -0 -0 -0 -0 -0 -0 -0 -0 -0
-0 -0 -0 -0 -0 -0 -0 -0 -0 -0 -0 -0 -0 -0 -0 -0 -0 -0 -0 -0 -0 -0 -0 -0 -0 -0 -0 -0 -0 -0 -0 -0 -0 -0 -0 -0 -0 -0 -0 -0 -0 -0 -0
-0 -0 -0 -0 -0 -0 -0 -0 -0 -0 -0 -0 -0 -0 -0 -0 -0 -0 -0 -0 -0 -0 -0 -0 -0 -0 -0 -0 -0 -0 -0 -1 -0 -0 -0 -0 -0 -0 -0 -0 -0 -0 -0
-0 -0 -0 -0 -0 -0 -0 -0 -0 -0 -0 -0 -0 -0 -0 -0 -0 -0 -0 -0 -0 -0 -0 -0 -0 -0 -0 -0 -0 -0 -1 -0 -0 -0 -0 -0 -0 -0 -0 -0 -0 -0 -0
-0 -0 -0 -0 -0 -0 -0 -0 -0 -0 -0 -0 -0 -0 -0 -0 -0 -0 -0 -0 -0 -0 -0 -0 -0 -0 -0 -0 -0 -0 -0 -0 -0 -0 -0 -0 -0 -0 -0 -0 -0 -0 -0
Wind_Speed
8 7 9 11 13 13 11 12 11 13 14 14 14 13 11 9 7 4 4 6 4 4 2 2 4 4 5 7 7 7 8 8 11 11 12 11 10 8 8 9 12 11 9
9 9 10 10 12 11 11 13 14 14 14 14 14 13 11 9 8 9 6 5 3 3 3 4 6 6 7 8 7 8 9 9 9 12 12 11 11 8 8 8 10 11 11
11 11 8 10 10 13 14 14 14 14 14 14 13 12 12 9 8 6 5 5 3 3 2 4 6 7 7 6 7 9 9 8 9 10 11 10 9 9 10 8 9 11 10
7 9 10 10 12 12 15 15 14 14 14 13 12 10 10 9 7 6 6 4 2 3 4 5 5 6 7 8 9 9 9 10 10 9 9 9 9 9 9 10 9 10 10
7 8 10 10 13 15 14 14 14 13 12 12 12 10 9 7 2 5 4 3 3 3 4 5 5 4 2 3 4 7 9 9 10 10 11 11 9 9 9 9 10 11 11
11 12 11 12 15 14 15 15 14 14 13 12 10 9 8 9 8 9 4 3 2 4 5 6 7 7 11 10 13 9 7 7 7 8 10 11 10 10 9 10 11 11 11
9 12 12 10 13 14 14 14 13 11 10 10 9 8 7 10 9 7 5 3 4 5 5 6 8 6 6 8 7 14 13 16 15 8 9 9 10 8 8 10 13 14 13
6 7 11 11 13 14 13 10 10 10 9 11 10 8 6 7 8 7 4 5 5 5 6 6 8 9 8 5 8 10 11 11 6 8 7 9 7 8 8 12 14 14 14
12 11 7 13 12 15 15 12 11 11 12 9 8 5 5 4 4 4 6 6 6 7 7 8 8 8 4 7 9 11 11 10 8 3 1 7 9 10 10 10 11 11 12
13 14 15 16 16 14 13 12 11 11 8 6 5 4 4 3 5 3 3 6 8 7 7 8 12 10 14 8 6 10 11 10 9 10 10 10 9 10 14 13 12 12 11
15 15 16 16 16 14 13 9 9 8 5 4 3 2 3 3 3 8 4 7 7 8 8 7 6 12 12 11 9 9 10 9 12 12 11 9 7 9 11 9 9 7 12
18 17 15 13 10 8 10 6 7 6 5 3 4 4 5 7 6 11 9 6 8 8 9 8 9 17 12 9 9 10 12 11 11 10 11 8 7 6 8 11 12 13 11
13 13 11 7 7 6 6 4 4 4 4 2 1 3 4 3 5 11 8 1 6 7 8 10 14 13 14 13 16 16 11 7 8 9 8 7 6 5 6 8 11 14 12
13 9 10 9 7 6 4 5 5 7 7 5 5 4 3 2 5 7 6 7 7 7 7 9 12 15 19 18 14 10 8 7 6 6 7 7 6 6 6 8 9 8 9
9 5 5 7 7 6 6 5 6 9 6 6 7 6 6 6 9 7 7 8 8 9 13 10 9 8 8 6 6 6 5 6 7 7 7 8 7 6 6 7 8 7 8
9 6 5 6 6 5 5 6 5 9 7 5 3 3 5 3 5 7 8 9 10 11 8 8 8 8 7 7 7 7 7 8 6 6 6 5 7 7 6 7 7 7 7
11 12 8 9 8 7 5 5 5 8 10 10 7 7 10 7 7 10 11 12 13 11 7 10 7 8 7 6 6 7 7 8 7 7 6 5 6 7 7 7 7 8 7
12 11 8 5 6 6 5 5 5 6 6 4 9 8 3 5 9 12 14 12 9 4 8 8 7 7 7 8 7 6 7 7 7 5 6 5 5 6 7 6 7 7 7
11 10 9 7 7 6 6 6 6 6 6 5 5 3 2 5 14 15 11 5 7 7 7 7 7 7 7 8 8 7 8 8 6 7 6 5 6 6 6 6 7 8 8
8 9 9 8 8 9 8 8 7 7 7 7 6 6 6 11 10 9 9 8 8 8 8 8 8 8 8 8 9 8 8 8 7 7 4 6 4 5 5 7 6 8 8
8 8 5 7 7 7 7 8 9 8 9 9 9 9 5 8 8 7 8 8 8 8 9 8 8 9 9 9 8 8 8 8 8 7 6 5 4 6 6 7 7 7 7
10 10 9 8 9 9 10 9 9 10 10 10 10 9 6 8 8 8 9 10 9 9 8 8 8 9 9 9 9 9 9 9 8 8 6 5 7 7 6 6 7 7 7
12 13 12 10 10 10 11 11 11 11 11 11 11 10 11 9 10 10 9 10 9 9 9 9 9 9 9 8 8 8 9 9 8 7 5 5 5 6 5 6 6 7 5
13 14 14 13 12 12 12 12 12 12 12 12 12 11 11 10 11 12 11 11 10 10 9 9 9 13 10 10 9 9 9 9 8 7 11 7 4 7 7 6 6 7 7
13 13 14 13 12 12 12 13 12 13 13 13 12 12 11 11 11 11 11 10 10 10 11 12 10 13 15 16 14 16 13 6 9 7 7 8 9 9 9 6 6 6 9
14 13 12 11 11 12 12 12 13 13 13 13 12 11 11 12 11 12 11 11 10 11 14 10 12 17 18 13 14 13 8 5 8 8 9 9 10 7 8 9 12 6 6
Wind_Direction
249 167 183 180 180 166 166 183 143 141 145 149 152 150 152 162 145 127 94 143 132 125 104 355 321 334 342 323 330 307 320 310 310 313 316 320 310 303 325 320 316 310 310
211 195 198 172 159 157 166 153 144 152 154 156 156 147 152 154 159 168 165 109 96 66 15 342 329 349 337 322 331 325 317 295 298 300 303 312 310 324 311 336 337 324 305
207 181 168 153 169 157 162 158 154 155 157 151 155 156 155 153 157 139 111 108 90 58 349 337 331 329 319 331 329 321 319 316 315 312 307 294 315 15 346 341 338 308 300
233 192 152 183 152 171 160 152 152 157 152 156 151 154 145 162 152 146 123 120 80 23 354 327 321 304 319 348 320 320 335 330 306 304 311 316 325 32 349 336 336 327 333
200 168 156 174 160 156 155 160 153 151 148 158 150 145 149 148 93 71 79 76 35 355 313 298 294 42 216 275 312 343 326 324 321 323 322 324 340 2 356 326 324 325 315
224 174 174 173 155 159 154 154 153 156 158 150 146 144 149 85 82 73 46 62 346 297 297 312 309 257 220 190 218 227 270 300 305 313 311 317 317 338 348 331 317 321 318
235 164 167 153 154 154 159 153 151 144 131 146 153 147 122 98 69 68 35 302 302 299 296 309 313 324 321 307 250 217 240 241 243 282 296 310 326 338 346 321 320 314 305
248 159 146 153 157 154 150 139 123 127 122 91 89 91 113 88 66 49 358 292 294 301 291 292 289 299 308 338 310 303 290 291 296 228 279 293 315 330 315 300 294 282 278
63 61 93 79 86 101 90 91 89 93 100 100 85 79 80 56 42 33 329 310 299 300 293 294 287 299 289 153 293 291 296 297 308 134 317 292 281 284 276 292 287 296 292
68 77 76 81 77 77 79 80 82 78 80 88 95 99 109 228 218 231 282 310 307 300 298 289 51 39 66 42 301 293 297 299 302 299 297 280 260 279 250 248 264 281 288
62 63 74 75 85 85 79 74 84 92 106 117 122 208 200 259 181 181 99 298 325 334 319 309 79 52 19 356 347 295 289 319 297 289 284 292 284 288 286 271 225 261 295
58 57 48 62 57 73 90 114 120 135 141 193 193 221 212 202 166 100 93 48 350 313 306 311 315 353 336 306 278 283 292 292 278 270 278 283 275 279 290 302 319 309 288
55 69 80 83 77 59 93 116 89 79 66 315 300 18 27 49 131 132 129 57 299 305 312 319 309 306 295 280 254 251 259 267 267 266 265 268 273 279 279 279 278 280 274
56 78 53 61 57 74 83 59 50 37 32 9 339 3 356 331 29 34 352 335 311 301 354 321 312 283 269 271 290 286 256 259 272 273 270 281 290 279 285 283 285 286 289
53 77 174 119 136 121 84 39 76 65 25 353 15 345 345 341 44 22 345 322 322 325 320 299 301 294 294 311 307 307 311 289 288 288 287 287 286 273 285 285 285 291 283
37 72 51 51 54 54 60 143 98 99 163 162 182 338 357 79 24 322 310 298 286 284 291 295 292 288 306 302 303 306 297 286 283 271 270 275 284 296 289 283 287 288 291
34 15 36 37 25 25 16 19 78 195 189 200 195 215 238 290 295 299 296 294 280 268 253 253 278 304 297 299 297 290 291 273 292 278 295 273 278 286 284 287 293 294 286
33 15 25 34 21 6 17 11 13 21 360 68 189 240 196 276 298 286 287 302 306 209 247 284 299 304 296 293 292 290 292 289 289 276 297 288 295 288 286 287 290 288 288
32 21 354 11 33 0 14 4 14 13 0 11 37 139 209 342 304 286 261 264 282 298 299 296 301 303 301 293 292 294 294 290 294 288 275 274 289 294 294 285 285 282 279
63 54 351 4 16 9 7 359 4 4 355 359 358 30 354 343 336 340 335 324 316 309 304 307 311 306 298 297 295 293 293 293 291 299 303 282 294 272 271 272 276 285 289
20 25 6 17 21 5 357 6 6 1 360 356 352 66 69 339 326 328 325 323 318 312 307 309 305 304 304 296 297 295 296 293 287 291 281 284 281 279 263 280 262 270 278
19 16 13 15 18 3 3 4 1 6 353 350 347 20 30 351 336 329 324 321 317 312 314 311 304 301 298 294 294 294 291 287 285 287 294 270 289 263 271 245 270 266 267
14 13 11 13 18 359 14 359 6 357 352 349 353 0 352 340 333 327 321 318 319 319 315 303 299 297 291 289 290 284 282 281 283 281 273 286 290 277 277 266 254 263 258
12 10 10 9 11 2 8 357 356 352 348 350 352 351 340 332 332 329 327 325 321 315 313 308 302 296 294 288 284 277 272 269 275 274 287 296 265 285 271 271 247 269 266
12 14 9 6 1 1 357 354 351 349 346 348 345 344 338 333 328 328 327 323 317 313 310 306 297 293 290 290 286 286 282 250 259 291 282 271 280 280 275 266 255 257 263
358 13 12 3 360 360 355 346 346 341 345 338 341 338 336 329 329 328 323 317 312 312 309 304 300 299 298 294 288 290 287 244 251 223 252 259 259 256 268 239 262 233 285